| time (UTC) | temp F | wind direction | speed MPH | gust MPH | rain 1hr in | rain 24hr in | rain mn in | humidity % | barometer mb |
| 20260504021540 | 45 | 204 | 0.0 | 1.0 | 0.00 | 0.00 | 0.00 | 65 | 1015.6 |
| 20260504020037 | 46 | 204 | 0.0 | 2.0 | 0.00 | 0.00 | 0.00 | 64 | 1015.7 |
| 20260504014540 | 46 | 205 | 1.0 | 3.0 | 0.00 | 0.00 | 0.00 | 64 | 1015.7 |
| 20260504013043 | 46 | 218 | 0.0 | 0.0 | 0.00 | 0.00 | 0.00 | 65 | 1015.5 |
| 20260504011537 | 47 | 218 | 0.0 | 0.0 | 0.00 | 0.00 | 0.00 | 64 | 1015.4 |
| 20260504010047 | 48 | 213 | 0.0 | 0.0 | 0.00 | 0.00 | 0.00 | 62 | 1015.5 |
| 20260504004536 | 49 | 213 | 0.0 | 0.0 | 0.00 | 0.00 | 0.00 | 60 | 1015.4 |
| 20260504003035 | 51 | 209 | 0.0 | 1.0 | 0.00 | 0.00 | 0.00 | 58 | 1015.4 |
| 20260504001541 | 52 | 209 | 1.0 | 5.0 | 0.00 | 0.00 | 0.00 | 54 | 1015.5 |
| 20260504000039 | 53 | 201 | 3.0 | 10.0 | 0.00 | 0.00 | 0.00 | 51 | 1015.4 |
| 20260503234534 | 54 | 195 | 2.0 | 8.0 | 0.00 | 0.00 | 0.00 | 51 | 1015.4 |
| 20260503233034 | 54 | 220 | 4.0 | 10.0 | 0.00 | 0.00 | 0.00 | 50 | 1015.3 |
| 20260503231533 | 55 | 234 | 3.0 | 9.0 | 0.00 | 0.00 | 0.00 | 50 | 1015.2 |
| 20260503230032 | 56 | 222 | 2.0 | 8.0 | 0.00 | 0.00 | 0.00 | 49 | 1015.3 |
| 20260503224532 | 57 | 246 | 2.0 | 9.0 | 0.00 | 0.00 | 0.00 | 49 | 1015.3 |
| 20260503223032 | 58 | 228 | 1.0 | 8.0 | 0.00 | 0.00 | 0.00 | 47 | 1015.4 |
| 20260503221538 | 58 | 226 | 6.0 | 12.0 | 0.00 | 0.00 | 0.00 | 46 | 1015.5 |
| 20260503220031 | 58 | 230 | 2.0 | 11.0 | 0.00 | 0.00 | 0.00 | 45 | 1015.4 |
| 20260503214530 | 58 | 218 | 5.0 | 10.0 | 0.00 | 0.00 | 0.00 | 45 | 1015.3 |
| 20260503213035 | 59 | 258 | 2.0 | 9.0 | 0.00 | 0.00 | 0.00 | 47 | 1015.3 |
| 20260503211529 | 58 | 209 | 3.0 | 10.0 | 0.00 | 0.00 | 0.00 | 48 | 1015.4 |
| 20260503210027 | 56 | 201 | 4.0 | 11.0 | 0.00 | 0.00 | 0.00 | 48 | 1015.4 |
| 20260503204527 | 59 | 225 | 3.0 | 11.0 | 0.00 | 0.00 | 0.00 | 48 | 1015.6 |
| 20260503203025 | 59 | 201 | 2.0 | 14.0 | 0.00 | 0.00 | 0.00 | 45 | 1015.7 |
| 20260503201529 | 58 | 237 | 2.0 | 9.0 | 0.00 | 0.00 | 0.00 | 48 | 1015.9 |
| 20260503200029 | 59 | 237 | 2.0 | 5.0 | 0.00 | 0.00 | 0.00 | 46 | 1016.1 |
| 20260503194526 | 59 | 231 | 2.0 | 7.0 | 0.00 | 0.00 | 0.00 | 50 | 1016.5 |
| 20260503193018 | 58 | 216 | 2.0 | 13.0 | 0.00 | 0.00 | 0.00 | 51 | 1016.7 |
| 20260503191521 | 57 | 272 | 2.0 | 9.0 | 0.00 | 0.00 | 0.00 | 52 | 1016.8 |
| 20260503190023 | 58 | 271 | 3.0 | 14.0 | 0.00 | 0.00 | 0.00 | 54 | 1017.1 |
| 20260503184521 | 58 | 335 | 2.0 | 10.0 | 0.00 | 0.00 | 0.00 | 54 | 1017.3 |
| 20260503183023 | 58 | 176 | 1.0 | 7.0 | 0.00 | 0.00 | 0.00 | 58 | 1017.5 |
| 20260503181524 | 58 | 147 | 2.0 | 14.0 | 0.00 | 0.00 | 0.00 | 51 | 1017.7 |
| 20260503180009 | 57 | 227 | 3.0 | 9.0 | 0.00 | 0.00 | 0.00 | 59 | 1017.8 |
| 20260503174506 | 56 | 227 | 3.0 | 8.0 | 0.00 | 0.00 | 0.00 | 52 | 1018.1 |
| 20260503173018 | 55 | 220 | 2.0 | 15.0 | 0.00 | 0.00 | 0.00 | 57 | 1018.1 |
| 20260503171504 | 56 | 217 | 2.0 | 10.0 | 0.00 | 0.00 | 0.00 | 52 | 1018.3 |
| 20260503100106 | 29 | 255 | 0.0 | 0.0 | 0.00 | 0.00 | 0.00 | 86 | 1018.8 |
| 20260503081544 | 30 | 253 | 0.0 | 0.0 | 0.00 | 0.00 | 0.00 | 84 | 1018.6 |
| 20260503071537 | 32 | 252 | 0.0 | 0.0 | 0.00 | 0.00 | 0.00 | 83 | 1018.3 |
| 20260503054524 | 35 | 254 | 0.0 | 0.0 | 0.00 | 0.00 | 0.00 | 83 | 1018.5 |
| 20260503053034 | 35 | 255 | 0.0 | 0.0 | 0.00 | 0.00 | 0.00 | 82 | 1018.6 |
| 20260503051520 | 35 | 254 | 0.0 | 2.0 | 0.00 | 0.00 | 0.00 | 81 | 1018.7 |
| 20260503050019 | 35 | 251 | 0.0 | 1.0 | 0.00 | 0.00 | 0.00 | 81 | 1018.8 |
| 20260503044531 | 35 | 274 | 0.0 | 3.0 | 0.00 | 0.00 | 0.00 | 81 | 1018.8 |
| 20260503043014 | 35 | 264 | 0.0 | 2.0 | 0.00 | 0.00 | 0.00 | 81 | 1018.9 |
| 20260503041514 | 35 | 261 | 0.0 | 3.0 | 0.00 | 0.00 | 0.00 | 80 | 1018.8 |
| 20260503040016 | 35 | 272 | 0.0 | 2.0 | 0.00 | 0.00 | 0.00 | 80 | 1018.9 |
| 20260503034512 | 36 | 276 | 0.0 | 4.0 | 0.00 | 0.00 | 0.00 | 79 | 1018.9 |
| 20260503033013 | 36 | 242 | 0.0 | 2.0 | 0.00 | 0.00 | 0.00 | 79 | 1019.0 |
| 20260503031510 | 37 | 257 | 0.0 | 3.0 | 0.00 | 0.00 | 0.00 | 79 | 1019.0 |
| 20260503030011 | 37 | 268 | 0.0 | 2.0 | 0.00 | 0.00 | 0.00 | 79 | 1019.0 |
| 20260503024510 | 37 | 268 | 0.0 | 2.0 | 0.00 | 0.00 | 0.00 | 79 | 1019.1 |
| 20260503023010 | 37 | 274 | 0.0 | 4.0 | 0.00 | 0.00 | 0.00 | 78 | 1019.1 |